Location: Buchloe
(48.0161°N, 10.7316°E)
Time: 03:20:30
(UTC+02:00)

ISS - Pass Details

Date: 07 July 2025
Orbit: 413 x 417 km, 51.6° (Epoch: 12 July)

Event Time Altitude Azimuth Distance (km) Brightness Sun altitude
Rises 02:01:17 0° 278° (W) 2,354 0.0 -18.9°
Reaches altitude 10° 02:03:27 10° 286° (WNW) 1,492 -0.9 -18.8°
Maximum altitude 02:06:40 42° 359° (N) 604 -2.5 -18.7°
Drops below altitude 10° 02:09:52 10° 72° (ENE) 1,494 -0.6 -18.6°
Sets 02:12:02 0° 80° (E) 2,358 0.4 -18.5°
